This is the latest recevied weather packets stored in our database for station/object WV8BRW. If no packets are shown the sender has not sent any weather packets the latest 10 day(s).
| Time | Temp. | Humidity | Pressure | Rain* | Wind** | Luminosity | Snow |
|---|---|---|---|---|---|---|---|
| 1778022989 | 20.56° C | 59% | 1007.2 hPa | 0 mm | - | 12 W/m² | - |
| 1778022688 | 21.11° C | 54% | 1007.3 hPa | 0 mm | - | 13 W/m² | - |
| 1778022386 | 21.11° C | 54% | 1007.6 hPa | 0 mm | - | 16 W/m² | - |
| 1778022081 | 21.11° C | 55% | 1007.3 hPa | 0 mm | - | 10 W/m² | - |
| 1778021778 | 21.67° C | 55% | 1007.5 hPa | 0 mm | - | 15 W/m² | - |
| 1778021474 | 21.67° C | 53% | 1007.4 hPa | 0 mm | - | 18 W/m² | - |
| 1778021171 | 21.67° C | 52% | 1007.5 hPa | 0 mm | - | 25 W/m² | - |
| 1778020869 | 21.67° C | 51% | 1007.3 hPa | 0 mm | - | 29 W/m² | - |
| 1778020566 | 22.22° C | 51% | 1007.2 hPa | 0 mm | - | 38 W/m² | - |
| 1778020262 | 22.22° C | 50% | 1007.4 hPa | 0 mm | - | 37 W/m² | - |
| 1778019958 | 22.22° C | 52% | 1007.2 hPa | 0 mm | - | 45 W/m² | - |
| 1778019654 | 22.22° C | 53% | 1007.4 hPa | 0 mm | - | 54 W/m² | - |
| 1778019352 | 22.78° C | 54% | 1007.3 hPa | 0 mm | - | 76 W/m² | - |
| 1778019048 | 22.78° C | 59% | 1007.3 hPa | 0 mm | - | 100 W/m² | - |
| 1778018745 | 22.78° C | 57% | 1007.4 hPa | 0 mm | - | 119 W/m² | - |
| 1778018443 | 22.78° C | 56% | 1007.2 hPa | 0 mm | - | 91 W/m² | - |
| 1778018141 | 22.78° C | 54% | 1007.2 hPa | 0 mm | - | 107 W/m² | - |
| 1778017838 | 22.78° C | 57% | 1007.3 hPa | 0 mm | - | 116 W/m² | - |
| 1778017536 | 22.78° C | 54% | 1007 hPa | 0 mm | - | 95 W/m² | - |
| 1778017233 | 23.33° C | 56% | 1007.4 hPa | 0 mm | - | 98 W/m² | - |
| 1778016931 | 23.89° C | 52% | 1007.5 hPa | 0 mm | - | 112 W/m² | - |
| 1778016627 | 23.89° C | 52% | 1007.4 hPa | 0 mm | - | 183 W/m² | - |
| 1778016323 | 24.44° C | 49% | 1007.4 hPa | 0 mm | - | 184 W/m² | - |
| 1778016021 | 24.44° C | 50% | 1007.7 hPa | 0 mm | - | 297 W/m² | - |
| 1778015718 | 24.44° C | 47% | 1007.5 hPa | 0 mm | - | 314 W/m² | - |
* Rain latest hour (hover to see other rain measurements)
** Current wind speed in m/s (hover to see current wind gust speed)